Theta_e
314 316 315 314 314 314 313 314 313 313 314 315 316 315 314 314 313 315 316 317 318 317 317 318 318 319 318 320 323 323 329 333 333 336 337 338 341 342 343 343 343 343 343 343 341 338 335 336 340 342 342 341 340 338 337 337 338 337 333 332 334 335 336 336 336 336 337 337 335 333 334 334 335 336 335 336 336 336 336 335 335 334 334 334 334 334
315 316 315 314 315 315 314 315 315 315 314 314 314 314 314 314 313 315 316 317 318 318 318 318 319 319 319 321 323 323 329 333 333 336 337 338 340 340 341 342 343 343 342 342 340 337 335 335 339 342 341 341 341 340 339 339 340 339 338 336 335 334 335 335 335 335 336 337 335 333 335 335 335 336 336 337 337 337 337 336 336 335 335 334 334 333
315 315 315 314 314 315 314 315 315 314 314 315 314 314 314 314 314 315 317 318 317 318 320 319 319 319 319 323 323 325 331 334 334 337 337 337 339 339 341 342 342 342 342 342 340 338 338 338 341 342 341 341 341 341 340 340 340 340 339 338 336 334 332 334 334 332 333 334 334 334 336 336 336 337 337 337 337 337 337 336 336 336 336 335 335 334
314 314 314 314 314 314 314 314 314 314 314 315 315 315 315 315 314 314 317 317 317 320 322 319 319 319 320 323 324 327 332 335 336 338 337 337 338 339 341 341 340 341 341 341 340 340 341 342 342 342 341 342 341 341 340 340 339 339 339 337 336 335 333 334 335 333 332 332 332 333 334 334 335 336 337 337 336 335 334 334 335 335 335 335 335 334
314 313 314 314 313 313 313 313 314 315 314 316 317 316 315 315 315 316 317 318 317 320 322 320 317 318 323 322 323 330 334 335 336 338 337 336 338 339 340 339 338 338 338 340 341 341 343 343 343 342 342 342 342 341 340 340 340 340 339 337 336 336 335 336 336 335 335 333 333 333 333 334 335 335 336 336 337 336 335 335 336 335 335 335 335 334
313 314 314 313 313 313 312 312 313 315 315 317 318 317 316 316 316 317 317 318 317 316 320 320 315 317 325 323 324 332 335 334 336 337 336 335 336 336 338 339 338 337 339 341 342 342 342 343 343 342 342 342 341 341 340 341 340 340 339 338 337 337 337 337 337 337 337 336 336 336 335 335 335 335 335 336 337 336 336 337 337 336 335 335 334 333
313 314 314 313 313 313 312 312 312 315 316 316 317 318 317 316 317 318 317 317 316 316 319 321 318 318 321 321 324 331 334 335 336 336 335 335 335 334 335 338 338 338 340 341 341 341 342 342 342 342 342 342 341 340 340 340 340 340 339 339 339 339 338 339 339 339 339 338 337 337 337 336 335 335 335 335 335 335 335 336 336 336 335 335 333 332
314 314 314 313 313 313 312 312 312 315 315 315 317 318 318 317 317 318 317 317 318 319 320 318 320 318 317 321 323 327 333 337 336 336 336 337 337 336 335 336 337 337 338 340 341 341 341 342 342 342 341 341 341 340 339 339 339 339 339 339 339 339 339 338 338 339 339 338 338 338 337 337 335 336 336 336 335 335 335 335 336 336 335 334 333 333
314 314 314 313 313 312 312 312 314 315 315 316 317 317 319 318 318 319 318 318 319 319 316 316 318 316 316 324 323 325 335 338 337 337 337 337 338 338 337 337 337 336 337 339 340 340 341 341 341 341 341 341 340 340 339 338 338 339 339 339 339 338 339 338 338 338 338 338 338 337 337 336 335 334 334 334 334 334 334 334 335 335 334 334 333 333
315 315 315 314 313 312 313 314 315 315 314 316 316 317 318 318 319 319 317 317 319 319 317 316 316 314 316 323 323 324 333 337 337 337 336 335 337 338 338 338 338 336 337 339 339 339 340 341 340 340 340 339 339 338 337 336 336 337 337 337 337 337 336 336 336 336 336 335 335 334 333 333 333 332 332 332 332 332 331 331 331 332 332 332 332 333
315 315 315 315 314 313 314 314 314 314 315 316 316 315 316 318 319 318 320 319 317 319 321 318 316 315 315 320 322 324 329 335 337 336 335 335 336 337 337 338 338 337 337 339 339 338 338 339 339 338 338 338 337 337 335 335 335 335 336 335 335 335 334 334 334 333 333 333 333 332 331 332 332 332 332 332 332 332 331 330 330 330 331 331 331 332
315 315 315 316 316 315 314 314 314 314 315 316 317 316 315 317 316 314 318 319 318 322 323 317 317 316 314 321 328 328 329 334 337 335 335 336 336 336 336 336 337 336 337 338 337 337 337 337 337 337 337 336 336 336 335 334 334 335 335 334 334 334 334 333 333 333 332 332 332 332 332 332 332 332 332 332 332 331 331 330 329 330 330 330 331 331
315 315 315 316 316 316 314 313 314 314 315 316 316 316 316 316 314 313 317 318 321 325 321 317 319 314 317 329 336 338 335 334 335 334 334 335 335 335 335 335 335 335 335 335 335 335 335 335 335 335 336 335 335 335 335 334 334 334 334 334 333 333 333 332 332 331 331 331 330 330 331 331 330 330 331 331 331 330 329 329 329 330 330 330 330 331
315 315 315 316 317 317 314 313 313 312 314 314 314 317 318 316 314 315 318 318 320 321 318 318 316 316 328 336 335 339 338 334 334 333 333 334 333 334 334 333 334 333 333 333 333 333 332 333 333 333 333 333 333 334 334 333 333 333 333 333 332 332 331 330 330 329 328 329 329 329 329 329 328 329 330 330 330 329 329 330 330 330 331 330 330 329
317 317 316 316 316 317 315 313 314 313 314 315 315 317 317 317 318 318 318 319 321 320 316 316 318 326 339 338 332 336 335 333 334 332 332 333 332 333 332 332 332 331 331 331 331 331 331 331 331 331 331 331 331 332 331 331 331 331 332 331 330 330 329 329 328 328 327 327 327 327 327 327 327 328 330 330 329 329 330 330 330 330 330 329 328 326
315 315 316 316 316 316 315 315 315 315 315 316 316 316 315 319 322 323 322 321 323 320 316 324 331 333 336 333 332 335 333 332 332 331 331 330 330 331 330 330 330 330 330 329 329 330 329 330 329 329 330 329 329 329 328 328 328 328 328 328 328 328 328 327 327 327 326 325 325 325 325 325 326 327 328 329 328 329 329 329 329 329 328 327 326 325
315 316 316 315 316 315 316 316 315 316 318 317 315 314 315 317 319 323 322 318 322 320 318 331 338 335 334 334 333 333 332 332 331 330 330 329 329 329 328 328 328 328 328 328 328 328 328 328 328 327 328 327 327 327 326 326 325 326 326 326 326 326 325 325 325 325 324 324 324 324 324 323 324 325 326 327 328 328 328 328 328 328 327 327 326 324
318 318 316 314 315 315 315 317 315 316 318 316 314 313 315 316 317 323 322 316 320 321 322 334 339 335 337 337 334 333 333 332 330 329 329 328 328 327 327 327 327 327 327 326 327 327 326 326 326 326 326 325 325 325 324 324 324 323 323 324 325 324 324 324 323 323 323 323 323 322 322 322 322 323 324 325 327 327 328 327 327 327 327 326 326 324
318 317 317 315 315 315 315 316 317 316 316 315 315 314 316 317 316 321 322 317 319 320 321 333 338 336 337 335 335 336 334 332 330 328 327 327 327 327 326 326 326 326 326 325 325 325 325 325 324 324 324 324 324 324 324 324 323 322 322 323 324 323 323 322 322 322 322 322 322 321 322 322 322 324 325 326 327 327 328 328 328 327 326 326 326 324
320 318 320 317 314 316 315 315 315 315 315 315 315 314 316 318 317 318 319 319 321 320 320 331 337 337 336 333 334 335 333 331 330 327 326 326 326 326 326 325 325 325 325 324 324 324 324 324 323 323 323 323 323 323 323 323 322 322 322 322 322 322 322 321 321 321 321 321 321 321 322 323 324 325 326 326 327 327 328 328 328 327 326 326 326 324
318 317 321 321 315 314 315 315 315 314 314 314 314 315 314 315 317 319 319 317 321 322 324 334 338 336 334 332 332 333 331 329 328 326 326 325 325 325 325 325 324 324 324 323 323 323 323 322 322 322 322 322 322 322 321 321 321 321 322 322 322 321 321 320 320 320 320 321 321 322 323 324 325 325 326 326 326 327 327 327 328 327 326 326 325 325
318 317 320 321 317 313 314 316 314 314 315 314 314 316 314 315 317 318 319 316 317 321 326 335 341 336 331 331 332 332 330 327 327 326 325 325 325 325 324 324 324 323 323 322 322 322 321 321 321 321 321 321 321 321 320 320 321 321 321 322 321 321 320 320 319 319 320 321 320 321 323 324 324 324 324 324 324 325 326 327 327 327 326 326 326 326
323 322 318 318 318 315 315 316 315 315 315 313 315 316 315 320 318 318 324 322 316 318 321 331 340 337 329 328 331 331 328 327 326 325 325 325 324 324 323 323 323 322 322 321 321 320 320 320 321 320 321 321 320 320 320 320 320 320 321 321 320 320 320 320 319 319 319 320 319 320 322 322 322 323 323 323 323 323 324 326 326 326 326 326 327 327
322 322 318 317 317 316 315 315 314 315 315 313 316 315 316 320 318 321 331 328 320 319 319 328 339 336 329 327 328 328 327 326 325 324 324 324 323 323 322 321 321 321 320 320 320 320 320 320 320 320 320 320 320 320 320 320 320 320 320 320 319 320 320 320 319 319 319 318 318 319 321 321 322 322 322 322 323 323 323 324 325 326 326 326 327 328
319 323 324 321 317 316 316 316 315 315 314 315 317 316 316 318 317 320 322 320 321 323 323 334 339 333 328 328 327 327 326 324 324 324 323 323 322 321 320 320 320 320 319 319 319 319 320 319 319 320 320 320 319 319 319 319 319 320 319 319 319 320 320 320 320 319 318 318 318 319 321 322 322 321 321 323 323 323 322 323 324 325 325 325 327 328
322 325 327 326 324 323 320 317 318 317 314 315 317 316 316 315 316 320 317 315 320 322 325 334 337 332 329 328 326 326 325 323 323 322 321 321 320 320 320 319 319 319 319 319 319 319 319 319 319 319 319 319 319 319 319 319 319 319 319 319 320 320 320 320 319 319 318 318 318 318 320 321 321 321 322 323 323 323 323 324 324 325 325 325 326 327
321 321 322 325 327 327 322 317 318 318 315 315 315 316 317 316 317 320 318 318 323 329 332 332 332 332 330 328 326 325 323 322 322 322 321 321 320 320 320 319 319 319 319 319 318 318 319 319 319 319 319 319 319 319 319 319 319 319 319 319 319 319 319 319 319 318 318 318 317 317 318 319 320 321 322 323 323 323 323 323 324 324 324 325 325 326
322 320 320 322 323 323 320 318 318 319 317 316 316 316 316 317 318 318 321 327 329 333 335 331 330 332 330 328 327 324 322 322 322 321 320 320 320 320 319 319 319 319 318 318 318 318 318 318 319 319 319 319 319 319 318 318 318 319 318 318 318 318 318 318 317 317 317 317 316 316 317 318 319 321 321 321 321 321 321 322 323 323 323 323 324 324
327 323 320 320 320 320 320 320 321 321 320 319 319 319 318 319 321 318 321 327 326 328 333 331 329 331 329 327 325 323 322 322 321 321 320 319 320 319 319 319 318 318 318 318 318 318 318 318 319 319 319 318 319 318 318 318 318 318 318 318 318 317 318 317 316 316 316 316 316 316 316 317 319 320 320 320 320 320 320 320 321 322 322 322 323 323
325 326 323 320 320 321 322 323 322 322 323 324 325 326 326 326 324 320 322 328 330 332 333 330 329 330 328 325 324 323 322 322 321 320 319 319 319 319 318 318 318 318 318 318 318 318 318 318 318 318 318 318 318 318 318 318 318 318 318 318 317 317 317 316 316 316 315 315 315 315 315 317 318 319 319 319 319 319 319 319 320 321 321 321 321 322
324 326 324 323 324 323 324 325 325 326 326 326 329 330 332 334 331 329 332 336 337 335 330 328 330 330 327 324 323 322 321 320 320 319 319 319 319 318 318 318 317 318 318 318 318 318 318 318 318 318 318 318 317 317 317 317 317 317 317 317 317 316 316 316 316 315 315 315 314 314 314 316 317 318 317 317 317 318 318 319 319 320 320 320 320 320
328 327 325 327 327 324 324 325 326 329 328 328 332 330 329 334 335 333 335 335 333 331 329 329 330 328 325 323 321 321 321 320 319 318 318 318 318 318 318 317 317 318 317 317 317 317 317 317 317 317 317 317 317 317 317 316 316 317 317 317 316 315 315 315 316 315 314 314 314 313 314 316 317 317 316 316 317 318 318 319 319 318 318 318 319 319
325 328 327 326 325 325 327 328 328 331 329 328 330 325 323 329 330 329 332 333 331 329 328 329 328 325 323 322 321 321 320 319 319 318 318 318 318 318 317 317 317 317 317 317 317 316 316 316 316 316 316 316 316 316 316 316 316 316 316 316 315 315 315 315 315 314 314 313 314 314 314 316 316 316 316 316 317 318 318 318 318 317 317 316 317 317
323 326 326 325 326 327 328 330 329 328 326 325 324 321 322 326 326 325 328 330 331 331 328 326 325 323 321 321 321 321 320 319 318 318 318 318 318 317 317 317 317 317 317 316 315 315 314 315 315 315 315 316 316 315 315 315 316 315 315 315 315 314 314 314 314 313 313 312 313 314 315 315 316 315 315 316 316 316 317 317 317 317 316 316 316 316
325 326 324 325 328 328 327 329 329 326 324 324 323 322 322 324 322 322 324 325 327 328 326 324 323 322 321 321 320 320 319 319 319 318 318 318 317 317 317 317 317 317 316 315 315 314 313 313 314 314 315 315 315 315 315 315 315 315 314 314 314 314 314 314 313 312 312 312 312 313 314 315 315 315 315 315 315 316 316 316 316 316 315 316 316 316
325 326 325 323 324 325 325 326 326 324 323 323 322 322 322 324 323 322 322 324 325 324 324 323 322 321 320 320 320 319 319 319 318 318 318 317 317 317 316 316 316 315 315 315 314 313 313 313 313 314 314 315 315 315 315 314 314 314 314 314 313 313 313 312 312 312 312 312 312 312 313 314 314 315 315 315 316 316 315 315 315 314 315 315 315 315
323 323 324 322 322 324 325 324 322 323 324 324 324 323 323 324 326 324 321 323 324 322 322 322 321 320 319 318 318 318 318 318 317 317 317 317 317 316 316 316 315 314 314 313 313 312 312 313 313 313 314 314 315 314 314 314 314 314 313 313 312 312 312 312 312 312 312 312 312 312 312 313 313 313 314 314 314 314 314 314 314 313 314 314 314 314
323 321 322 323 323 324 325 323 322 324 326 325 325 324 321 321 323 322 321 323 323 321 321 321 319 318 317 316 316 317 317 317 316 315 316 316 316 316 316 315 315 315 313 312 311 310 311 312 313 313 314 314 314 314 314 314 314 313 312 311 311 311 311 311 311 311 312 312 312 312 312 312 312 312 312 312 312 312 312 312 312 312 312 313 313 313
324 323 324 325 324 323 324 324 324 325 324 322 323 323 321 320 321 321 322 323 322 319 320 319 317 316 316 315 316 317 317 317 316 314 314 315 316 315 315 315 314 313 311 310 309 310 311 312 312 313 314 314 313 313 313 313 313 312 311 310 309 309 310 310 310 310 311 310 310 310 310 310 310 311 311 310 310 309 310 310 309 310 310 311 311 311
324 322 324 325 325 324 325 325 324 324 322 321 322 322 320 320 321 322 324 325 320 317 319 318 316 316 316 316 317 317 317 316 315 313 313 314 315 314 314 313 312 311 309 308 309 309 309 310 312 312 313 313 312 312 312 312 312 311 310 309 308 308 307 307 308 308 308 308 308 308 308 308 308 309 309 309 308 308 307 307 307 308 308 308 308 308
321 320 322 324 323 324 326 325 322 322 322 321 320 320 318 319 322 324 325 323 318 317 318 316 315 315 315 316 316 315 314 314 313 312 313 313 313 312 312 311 310 309 308 307 307 308 308 309 310 310 311 311 311 311 311 311 310 310 309 309 307 306 305 304 304 305 304 304 304 304 304 305 305 306 306 306 306 306 306 305 305 305 305 305 305 305
320 320 321 321 321 322 324 323 322 321 320 318 318 318 318 321 324 324 321 318 316 316 316 315 315 315 315 314 313 312 312 313 312 312 312 312 311 310 309 308 307 307 306 306 306 307 307 307 308 309 310 310 310 310 310 310 310 309 309 308 307 305 304 303 302 302 302 302 301 300 299 299 300 301 302 302 303 304 304 304 303 302 302 302 302 302
322 322 322 320 319 321 321 321 322 321 318 317 318 319 320 322 323 319 316 315 315 316 315 314 314 314 313 313 312 312 312 312 311 311 311 310 309 308 307 307 307 307 306 306 306 306 306 306 307 307 308 309 310 310 310 310 309 309 308 307 306 304 303 301 299 299 300 300 300 298 296 296 296 296 297 298 299 299 300 300 300 300 300 300 300 300
321 322 323 320 318 320 322 321 320 319 317 317 318 318 318 319 318 316 314 314 314 314 313 313 313 312 312 312 312 312 311 310 310 310 309 308 307 307 307 307 307 307 307 306 306 306 306 305 305 306 306 307 308 308 308 308 308 307 307 306 305 304 302 299 297 297 297 297 297 296 295 295 296 296 296 296 296 296 296 297 297 296 297 297 298 298
320 319 320 317 315 317 320 319 317 317 316 316 317 316 315 316 316 315 314 313 313 313 313 312 311 312 312 312 311 311 310 309 309 308 307 307 307 307 307 306 306 306 306 306 306 306 305 305 304 304 304 304 304 304 304 304 304 304 303 303 302 301 300 298 296 296 296 296 296 296 296 296 296 296 296 296 296 296 296 296 296 296 295 295 295 296
317 315 315 316 315 315 316 315 316 316 316 315 315 315 315 315 314 314 313 313 312 312 311 311 311 311 311 311 310 310 309 308 307 306 306 306 306 306 306 306 306 306 307 306 306 306 305 304 304 304 304 304 303 303 303 302 302 302 302 301 301 300 299 298 298 298 298 298 299 299 299 299 298 297 297 296 296 297 296 296 296 295 295 295 295 295
315 314 315 316 316 316 316 315 316 316 315 314 314 314 314 314 313 313 312 312 311 311 311 311 311 310 310 310 310 309 308 307 306 306 305 305 305 306 306 306 306 306 307 307 306 306 305 305 304 304 304 304 304 304 303 303 303 302 301 301 301 301 301 300 300 300 301 301 301 301 301 300 300 299 298 297 297 297 298 297 297 296 296 295 295 294
317 316 315 315 315 315 316 315 315 315 315 314 314 313 313 313 312 312 311 311 310 310 310 310 310 309 309 309 309 308 307 306 306 305 305 305 305 305 306 306 306 306 306 306 306 306 305 305 305 304 304 304 303 303 303 303 303 303 302 302 302 301 301 302 302 301 301 301 301 301 301 301 301 300 300 299 298 298 299 298 298 297 297 296 295 295
318 316 314 314 314 314 315 315 315 315 315 314 313 313 312 311 311 310 310 310 310 309 309 309 309 309 309 308 308 307 307 306 305 305 305 305 305 305 306 306 306 306 306 306 306 305 305 305 304 304 304 303 303 303 303 302 302 302 302 302 302 303 302 302 301 301 301 301 301 301 301 300 300 300 300 300 299 299 299 299 298 298 298 296 295 295
315 314 313 313 314 314 314 314 315 315 314 313 312 312 311 311 310 310 309 309 309 308 308 308 308 308 308 307 307 306 306 305 305 304 304 305 305 305 305 306 306 306 306 306 305 305 305 305 304 304 304 304 303 303 303 303 302 302 301 301 301 301 302 302 301 301 301 301 300 300 300 300 300 300 300 300 299 299 299 299 299 298 298 297 296 295
314 313 314 314 314 314 313 314 314 314 313 311 311 311 310 310 309 309 308 308 308 308 308 308 307 307 307 306 306 306 306 305 304 304 304 304 304 305 305 306 306 305 305 305 305 305 304 304 304 304 304 304 304 303 303 303 303 302 302 301 300 300 300 301 301 300 300 300 300 300 300 300 300 300 300 300 299 299 299 299 299 299 298 297 296 296
Wind_Speed
13 5 5 6 5 6 8 9 9 11 12 12 7 6 9 8 9 10 8 14 13 9 9 11 11 12 11 5 7 16 28 27 24 24 25 27 30 31 32 30 27 24 23 20 18 17 15 14 13 14 14 13 13 13 13 13 11 9 11 12 12 11 10 10 10 9 10 10 11 12 12 13 12 11 11 10 10 11 11 10 10 12 12 13 14 13
12 6 6 7 6 7 9 10 12 13 13 12 7 5 7 7 10 12 8 16 14 8 8 10 10 11 11 7 10 12 19 21 23 23 22 26 28 30 32 30 27 25 23 20 19 17 15 14 14 14 13 12 13 13 12 13 12 10 9 10 10 9 10 11 10 10 12 13 13 12 13 13 13 10 8 9 9 10 11 11 11 11 12 13 13 12
8 6 8 9 7 8 9 10 13 15 12 8 7 5 5 6 9 10 8 18 15 6 7 10 9 9 10 9 10 11 17 21 29 31 29 31 30 29 32 31 29 27 24 21 20 19 16 15 15 15 14 13 12 12 11 12 13 11 10 8 8 7 8 9 9 9 10 11 12 13 13 14 13 12 9 8 9 11 12 12 13 13 13 13 13 12
6 6 9 10 9 11 11 11 12 13 10 6 6 4 5 8 8 6 7 18 15 6 6 9 9 7 6 7 9 15 23 25 31 35 34 36 35 33 33 32 30 29 26 23 21 20 17 17 16 15 14 13 13 12 11 11 11 10 9 6 7 7 6 6 6 6 5 5 7 9 9 10 11 12 11 8 7 10 12 13 14 15 14 14 14 12
6 7 12 12 12 13 12 11 11 9 7 7 7 6 7 10 10 5 9 15 12 6 4 7 7 6 3 8 7 12 22 23 29 32 28 30 33 34 34 32 30 28 26 24 22 20 18 17 16 15 14 13 13 13 12 11 10 9 7 4 5 5 4 3 4 4 3 3 3 3 2 3 4 6 6 5 5 7 9 12 14 15 14 13 14 13
7 12 17 14 12 14 12 11 11 8 5 6 7 9 12 14 13 4 8 10 6 5 4 6 6 6 3 9 8 9 13 15 22 24 22 26 30 32 32 30 29 26 23 23 20 19 17 16 15 14 14 15 15 15 14 13 11 9 6 5 4 3 2 1 1 1 1 1 1 1 1 1 1 0 1 4 7 9 10 12 14 17 15 12 14 16
6 12 17 15 13 14 13 10 11 9 5 4 5 9 14 15 14 7 3 5 4 6 6 6 6 3 2 7 9 13 13 13 17 17 20 26 27 28 30 29 28 25 22 21 18 16 15 15 15 14 15 16 16 16 16 14 12 10 8 7 6 3 2 1 1 2 3 3 2 2 3 3 3 2 2 4 7 9 11 13 14 17 18 13 15 18
8 13 14 16 14 11 10 9 9 9 6 4 6 10 12 12 13 9 4 4 5 5 4 5 6 3 2 5 8 14 16 15 15 14 16 22 24 26 28 28 26 22 20 18 16 15 15 14 15 15 15 15 15 14 14 13 12 10 9 9 8 7 5 3 3 4 4 4 5 5 5 5 5 5 6 7 9 10 12 13 13 16 19 17 16 19
10 13 11 15 14 8 8 8 9 10 6 5 8 10 9 9 9 8 6 5 7 6 3 5 5 3 1 5 6 13 16 16 17 16 14 18 24 25 25 25 22 19 18 17 17 17 16 15 14 15 14 12 11 11 11 11 10 10 10 8 7 5 5 4 4 5 5 6 7 7 7 7 7 7 8 9 11 12 13 14 14 15 17 18 18 18
9 15 13 13 11 7 7 9 10 11 6 6 10 11 7 7 7 6 5 2 5 6 5 6 5 4 2 4 6 10 13 13 13 12 13 18 25 27 25 24 21 20 19 17 17 18 17 16 14 13 11 9 8 8 7 7 6 6 5 3 2 1 2 2 3 5 6 6 7 7 7 7 7 8 9 10 10 10 10 11 12 12 14 17 18 19
9 18 18 9 10 11 9 9 11 12 8 7 10 10 7 7 4 3 4 1 3 2 5 8 8 6 3 4 5 6 10 16 14 11 13 18 25 28 28 28 25 22 19 17 17 16 15 15 13 11 10 8 7 6 4 4 5 6 5 4 2 2 3 3 4 5 4 4 4 4 5 5 6 7 9 10 11 11 12 12 13 14 15 16 18 19
9 14 12 8 11 14 12 9 10 12 9 6 7 6 4 6 2 1 3 4 3 3 5 6 8 7 4 3 4 4 7 19 20 17 16 17 23 28 29 29 27 23 20 18 16 14 13 13 11 10 9 8 7 6 4 4 5 7 6 4 4 5 5 6 7 6 5 4 5 4 3 3 4 5 7 9 11 12 13 13 14 15 16 17 18 20
8 8 8 9 11 12 10 6 6 9 8 6 5 5 4 3 1 2 2 1 2 4 6 7 7 5 4 1 7 4 7 15 19 22 23 23 26 28 27 28 27 24 23 21 18 16 14 12 11 10 9 8 7 7 6 6 7 8 8 6 5 5 5 7 8 8 7 6 6 5 5 5 5 7 8 8 9 10 11 13 15 16 17 19 21 22
6 6 9 11 8 10 10 6 6 7 6 7 6 5 5 3 3 3 2 2 3 4 7 10 8 4 2 3 7 4 13 17 21 26 29 30 30 29 29 29 27 24 23 21 20 18 15 12 11 9 8 7 6 7 7 8 8 9 10 8 5 4 4 6 8 7 7 6 6 6 6 6 6 8 8 8 9 10 11 13 16 18 20 21 23 24
6 5 8 10 6 8 10 7 7 7 5 7 7 5 4 4 4 4 3 3 4 5 6 8 5 2 2 3 6 8 19 24 28 30 30 31 30 30 31 30 27 24 22 20 19 17 14 11 10 9 7 5 5 6 7 8 9 9 11 10 7 5 4 5 6 7 7 7 7 7 7 7 8 9 9 9 9 10 12 15 17 18 20 22 24 25
7 5 7 10 8 7 8 5 6 8 6 4 4 6 5 5 4 3 4 6 4 4 3 3 2 2 3 3 6 10 17 22 26 28 30 30 29 30 30 28 27 25 23 21 19 16 14 11 9 8 7 5 4 4 5 6 7 7 7 8 7 5 5 5 7 8 8 8 8 8 9 9 9 9 10 9 9 11 13 15 17 18 19 22 24 25
6 5 6 10 9 10 12 9 5 7 6 3 3 5 5 5 4 3 4 4 4 2 2 3 4 3 4 3 5 8 11 13 15 19 23 25 27 28 26 26 27 26 24 22 20 17 14 11 9 8 7 6 5 4 3 4 4 5 6 5 2 2 4 6 7 7 8 8 8 9 10 9 9 9 9 9 10 11 13 15 17 18 20 22 24 23
5 3 6 11 9 10 15 11 6 3 4 4 4 5 3 5 5 3 3 3 4 1 1 4 7 7 5 2 2 6 8 9 10 12 16 20 22 23 22 24 25 25 24 23 20 19 15 12 10 8 7 6 6 4 3 3 3 3 2 2 3 5 6 7 7 7 8 9 8 9 10 11 11 10 10 9 10 11 13 15 16 18 20 22 23 23
4 1 4 11 9 6 11 7 6 8 8 5 3 4 5 5 5 2 3 4 5 3 0 3 7 7 5 5 9 11 11 10 10 11 12 14 17 19 20 22 22 22 21 20 18 17 15 13 11 8 7 7 6 5 4 3 2 1 5 7 7 6 6 8 8 7 8 9 9 10 11 12 12 11 10 10 11 12 13 15 17 18 19 21 22 22
4 3 2 8 9 7 7 5 5 8 10 7 3 4 5 5 4 3 4 4 5 4 3 3 2 3 2 6 12 14 14 14 14 11 11 13 17 20 20 21 22 20 18 16 15 13 12 11 9 8 6 6 4 3 2 1 3 6 9 9 7 6 6 7 7 6 8 9 10 12 12 11 11 10 11 11 12 13 13 15 16 18 19 20 21 21
2 4 0 5 6 9 5 6 9 8 7 6 3 4 6 4 4 3 3 3 5 4 4 3 1 3 0 2 8 11 11 12 13 12 12 16 20 21 21 22 22 20 17 15 14 11 9 9 8 6 5 5 5 5 5 6 9 11 11 10 9 8 8 8 8 8 9 11 12 12 12 11 10 11 11 12 12 13 13 14 16 17 18 19 19 20
2 3 3 4 4 7 5 7 10 9 8 7 4 4 6 5 6 4 3 2 4 4 5 5 3 4 3 2 4 8 9 10 13 14 14 18 23 23 22 22 22 21 19 16 15 13 11 10 8 6 6 8 8 8 6 7 11 14 13 9 7 9 10 11 12 11 12 13 13 11 10 10 11 12 11 11 12 12 12 13 15 17 18 17 18 18
5 3 5 4 3 5 6 7 10 9 8 8 6 6 5 4 5 5 3 4 2 3 4 5 3 2 3 3 5 9 12 15 18 19 18 20 24 24 23 23 23 22 19 16 15 14 12 11 9 8 9 10 9 8 8 10 12 13 11 8 7 10 13 15 16 15 14 13 12 10 8 8 10 11 11 11 12 12 12 13 13 15 16 17 17 17
6 3 4 3 3 3 7 7 8 9 7 6 7 6 5 5 5 6 5 3 2 4 4 4 2 1 2 4 10 16 18 18 18 20 22 21 23 25 25 24 23 21 18 16 15 14 13 13 11 11 11 9 8 9 11 13 14 13 12 11 12 15 17 18 17 16 14 13 12 11 9 9 9 10 10 11 12 13 13 13 13 13 15 16 16 15
5 2 4 4 1 3 7 6 6 9 8 4 3 6 6 5 4 5 3 1 0 4 4 5 1 2 4 6 12 17 17 16 17 21 24 23 23 24 24 24 22 21 18 15 14 14 13 13 12 11 11 10 11 12 13 14 14 14 14 15 17 19 18 15 13 13 13 13 13 13 12 12 11 11 12 13 14 14 14 14 14 14 13 13 13 13
6 2 5 5 4 5 6 4 4 5 5 3 1 4 8 8 5 4 3 2 3 4 2 5 4 4 7 9 12 13 13 14 17 22 24 24 25 24 23 23 22 20 17 15 15 13 12 13 12 12 12 12 13 13 14 14 14 13 14 17 18 17 14 11 9 10 12 13 14 15 15 15 14 14 14 15 16 15 14 13 13 13 12 10 10 12
3 2 5 6 5 6 3 2 2 5 3 5 4 4 5 9 8 5 4 5 6 1 3 4 11 12 10 11 12 12 14 13 14 19 22 23 25 24 23 22 21 18 16 15 15 14 13 14 14 15 14 13 14 15 15 15 15 15 16 17 15 12 10 9 10 11 13 15 17 18 17 17 16 15 15 16 16 15 14 13 12 12 11 10 9 10
3 1 6 6 4 5 3 3 1 5 2 5 7 7 6 8 11 7 4 5 6 5 2 5 15 17 13 13 13 14 15 13 13 18 22 23 24 24 23 23 21 18 15 14 14 15 15 14 14 15 14 13 15 17 17 17 17 18 17 15 12 11 12 13 14 15 18 19 18 18 17 16 15 16 16 16 16 15 15 14 12 11 11 11 11 11
5 2 3 5 4 5 1 2 5 6 3 3 3 6 7 7 10 11 8 5 5 5 6 12 16 16 15 14 14 14 15 16 17 21 24 25 25 25 24 23 21 18 16 15 15 15 15 14 15 16 15 15 16 16 17 18 18 17 16 14 13 13 13 15 15 17 19 19 18 17 17 16 16 17 18 17 17 17 17 16 14 12 11 12 12 12
6 1 2 4 4 5 3 5 7 8 5 6 6 4 5 6 7 10 8 5 5 6 12 16 13 10 12 12 12 15 19 22 24 25 25 26 26 26 25 23 21 19 17 16 16 16 16 16 15 16 16 16 16 16 17 18 17 15 14 12 12 12 13 14 14 16 18 18 17 16 16 17 18 19 20 21 21 21 21 20 17 15 14 14 14 13
5 0 2 4 2 4 4 5 6 6 6 6 6 9 10 9 6 4 3 7 9 9 14 17 11 6 9 13 16 19 23 24 24 24 23 25 27 27 25 24 22 21 19 18 18 18 17 17 16 16 16 15 16 16 16 16 14 13 13 11 11 12 12 12 11 16 18 17 17 16 17 17 19 20 22 23 24 24 23 22 21 21 21 20 19 18
4 1 1 5 4 3 5 5 4 6 8 6 7 10 11 8 6 3 1 4 9 15 17 15 9 5 9 15 18 20 22 21 20 22 23 23 25 25 26 26 24 22 21 19 17 16 16 16 16 16 17 16 16 14 14 15 14 13 12 11 11 12 11 9 12 16 17 17 16 16 17 18 19 21 22 23 24 24 23 22 22 23 24 23 23 21
4 3 2 5 4 2 6 6 5 6 6 4 3 5 6 6 7 7 7 6 7 16 16 10 9 10 13 18 18 16 17 18 19 22 24 24 24 24 26 26 25 23 21 18 16 16 18 17 15 16 18 17 16 15 14 16 15 13 12 11 11 11 10 10 15 17 18 18 16 16 18 18 19 21 21 22 23 23 22 22 21 22 23 22 21 20
5 6 4 4 5 1 6 6 6 4 0 3 2 2 3 3 7 8 7 7 5 6 8 8 11 15 16 18 18 16 17 19 22 24 26 27 27 26 26 25 25 24 21 18 17 17 18 17 16 17 19 17 17 17 17 17 15 13 12 10 9 9 10 13 17 19 20 19 18 18 18 18 19 20 20 20 21 21 21 21 21 21 21 21 21 21
5 6 3 3 5 1 3 5 4 2 4 4 2 4 3 5 10 9 7 7 8 9 14 15 14 15 16 19 22 23 23 23 24 25 26 27 29 29 27 25 24 24 22 20 20 17 15 17 19 20 18 16 17 18 18 17 15 12 11 9 9 11 14 17 18 18 19 20 21 21 20 19 20 20 20 19 20 20 20 21 21 21 21 21 22 22
5 4 3 3 4 2 2 4 2 4 3 2 3 4 2 6 10 6 7 9 9 10 15 16 15 15 18 24 27 28 29 27 23 22 24 28 30 30 27 25 25 25 23 21 21 19 15 18 21 19 16 16 17 15 16 17 14 11 10 11 13 16 18 20 20 19 19 21 23 22 22 22 22 22 21 20 19 19 19 19 20 21 20 20 21 22
4 3 2 3 3 3 3 2 1 1 3 2 1 1 2 3 7 4 1 5 6 7 13 16 15 15 19 25 30 33 34 29 19 15 21 28 30 29 27 26 25 23 22 21 20 18 17 19 20 16 16 19 18 14 14 14 11 10 11 13 16 20 22 23 24 22 22 23 23 22 22 23 23 24 23 22 21 21 21 21 21 21 21 20 21 22
5 2 2 3 1 3 5 3 1 1 2 3 3 4 5 4 7 8 3 2 3 5 15 17 14 15 19 24 30 34 31 21 9 8 20 29 30 29 28 26 24 22 21 20 20 18 19 20 18 16 19 21 18 15 13 10 8 9 12 17 21 22 22 23 24 23 23 22 21 20 21 21 21 22 22 23 24 23 23 23 23 22 22 21 22 22
6 3 3 4 2 3 5 3 2 2 3 4 2 4 4 3 7 9 4 2 3 5 15 18 15 17 20 25 32 30 20 11 5 8 22 30 29 29 28 25 23 22 20 20 20 20 19 19 18 17 20 20 18 15 12 10 9 12 15 20 22 22 23 23 23 23 23 22 21 20 20 20 20 21 21 22 23 23 23 23 23 22 22 21 21 21
5 3 3 4 3 4 4 2 1 1 2 2 4 1 3 2 5 8 3 5 6 10 17 21 20 20 23 28 29 19 9 9 12 16 25 30 27 26 25 23 23 23 22 21 20 20 20 19 17 18 19 19 18 14 12 11 13 16 18 20 22 23 24 24 23 23 23 22 22 22 21 21 21 21 21 21 21 21 22 22 22 22 22 22 23 22
2 1 2 3 4 4 4 3 1 2 2 1 5 7 7 3 2 4 4 7 14 18 20 23 24 25 26 24 18 10 10 21 27 27 28 28 25 24 23 22 23 24 22 22 21 21 21 19 18 18 20 19 18 15 14 15 17 19 19 19 21 22 22 22 22 22 22 22 22 22 21 21 21 21 21 20 19 20 20 21 22 22 23 23 24 24
3 1 2 3 2 3 3 3 1 3 1 1 6 8 6 4 2 2 5 15 26 27 23 24 26 26 24 19 18 22 27 32 34 31 28 26 25 25 24 24 25 24 22 22 22 22 22 20 19 20 20 19 19 18 17 18 21 22 20 20 20 19 18 18 19 19 20 21 22 22 22 22 21 21 21 20 19 20 20 20 21 23 23 23 23 24
3 2 3 2 2 2 2 2 2 1 2 2 7 6 1 3 4 9 16 21 27 28 26 27 27 24 22 22 28 34 35 34 32 31 29 28 27 27 26 25 25 23 22 22 22 21 21 21 20 20 19 19 19 18 16 17 20 21 20 20 20 18 18 19 19 19 20 20 20 22 23 23 22 22 22 21 20 20 21 21 21 22 22 22 22 23
1 1 3 1 1 2 3 2 2 2 2 1 0 1 4 6 13 22 24 23 23 25 26 26 24 21 23 29 35 36 35 33 32 31 31 30 29 29 28 26 25 23 22 22 21 20 20 19 19 19 18 18 17 16 15 16 19 20 19 18 17 16 18 20 20 22 23 23 23 24 24 24 24 23 23 22 21 21 22 21 21 22 22 22 22 22
1 2 5 3 0 1 3 2 3 0 6 12 14 14 16 19 22 25 26 25 25 25 24 24 24 23 27 33 37 36 34 33 32 31 32 31 30 30 29 27 26 24 23 22 21 20 19 20 20 20 20 19 18 17 16 17 19 20 20 18 17 17 18 20 22 24 25 26 26 26 25 25 25 25 25 24 24 24 24 23 22 23 23 23 22 23
4 8 7 5 2 3 5 4 1 7 15 20 21 21 23 25 25 25 26 25 23 24 26 27 27 29 32 36 37 35 34 34 33 32 31 32 31 30 29 28 26 25 24 22 21 20 20 21 21 21 22 20 19 19 19 18 19 20 20 19 20 20 20 21 22 24 25 26 26 25 25 26 26 26 26 26 26 27 27 26 25 25 25 25 24 24
3 6 5 4 4 3 2 2 2 10 16 19 21 22 22 23 23 24 25 24 24 26 28 29 30 33 34 36 37 36 35 35 35 33 31 31 31 30 30 29 27 25 24 23 22 21 22 22 22 21 21 21 19 19 19 19 19 20 20 20 20 20 20 20 21 21 21 22 22 23 24 25 26 26 26 27 27 28 29 29 28 27 27 27 26 25
4 5 6 5 3 3 2 3 6 14 16 18 21 21 20 21 21 22 23 23 24 27 29 30 32 33 33 33 35 38 36 34 34 34 32 31 31 31 31 30 28 27 26 24 23 23 23 23 23 22 21 21 19 18 18 18 18 19 21 21 20 20 20 20 20 19 18 18 18 20 21 23 24 25 26 26 27 29 30 30 30 30 31 30 29 28
7 7 5 5 5 5 3 5 10 14 12 14 19 21 20 21 22 22 22 24 25 28 30 30 31 31 32 32 34 37 37 34 34 34 33 31 32 31 30 29 29 29 27 24 24 24 24 24 23 22 21 20 18 18 18 18 18 19 20 20 19 18 19 20 20 19 18 17 17 18 19 21 22 23 24 25 26 28 29 29 30 32 33 32 30 30
8 5 4 6 6 3 3 6 9 8 6 10 19 23 22 22 23 24 24 26 27 30 31 31 30 30 31 32 33 36 37 35 33 32 33 33 32 31 31 31 30 28 26 25 25 24 23 23 23 22 21 20 19 19 19 18 18 17 17 17 16 17 18 20 20 20 19 18 18 18 18 19 20 21 22 23 24 25 25 25 26 28 31 31 30 30
6 2 4 5 5 5 9 13 13 12 11 15 21 24 22 23 25 25 26 27 27 29 31 33 33 32 30 30 32 34 36 36 34 33 33 33 32 32 32 31 28 27 27 26 25 24 24 23 23 22 21 20 19 20 20 19 18 17 17 16 16 17 19 20 21 21 20 19 19 18 18 19 20 20 21 21 22 22 22 22 22 24 27 29 28 28
Wind_Direction
198 199 216 204 195 189 199 219 233 238 241 243 230 195 207 218 244 252 194 173 183 187 208 204 193 225 233 230 228 170 144 142 142 133 132 135 136 139 141 142 143 141 140 142 139 137 140 141 146 143 136 134 130 129 134 133 133 131 136 153 166 170 177 187 196 205 208 213 219 219 219 218 221 229 236 249 261 267 268 266 267 268 265 263 264 266
195 199 217 202 201 202 201 215 234 247 250 252 259 249 232 216 231 249 199 169 183 189 204 204 183 215 229 201 208 173 133 135 138 131 133 134 134 140 141 142 143 138 139 144 140 140 149 152 154 149 140 138 135 134 136 134 138 142 139 147 161 166 174 187 198 205 206 211 216 219 222 221 223 229 243 262 270 275 276 273 272 274 272 268 266 265
202 214 206 197 205 216 220 214 223 243 251 253 263 266 265 247 235 248 198 170 183 195 198 202 189 217 228 192 184 157 134 140 141 139 140 137 136 141 141 141 140 138 141 146 145 148 154 154 156 152 145 144 140 139 143 143 147 154 155 156 156 159 172 186 199 206 206 207 207 211 219 220 219 220 227 247 262 269 273 276 277 278 278 276 276 277
201 212 196 199 205 213 228 222 218 236 245 248 249 246 267 258 245 252 185 171 181 190 177 182 193 237 240 178 171 149 142 140 137 137 140 142 143 142 142 143 143 144 149 152 153 155 155 153 154 150 145 144 138 139 142 138 138 142 149 153 150 159 172 180 195 209 216 217 211 213 217 217 216 217 225 244 269 271 271 276 276 273 277 279 281 287
196 190 192 205 208 209 224 227 222 226 236 246 235 232 256 257 256 245 171 167 175 200 179 144 178 257 237 161 163 140 139 136 131 131 132 137 141 139 141 146 150 154 158 159 158 159 156 153 152 146 143 142 137 139 138 134 141 148 150 149 143 148 154 165 187 197 208 214 204 191 176 187 194 200 221 259 291 284 275 278 280 279 281 283 284 288
207 188 191 205 211 208 216 224 224 213 221 247 234 231 246 256 267 256 158 151 145 219 231 125 158 264 233 157 147 128 136 132 127 127 126 131 136 137 141 147 152 156 160 160 158 156 155 154 151 147 145 147 147 147 146 143 149 156 153 144 137 129 124 142 189 225 282 334 39 37 37 6 16 83 261 287 298 297 292 289 289 290 288 284 287 287
220 197 188 199 208 207 213 222 223 211 204 237 234 231 241 252 267 277 184 151 138 210 220 131 141 246 213 161 148 138 137 131 124 124 129 134 137 139 144 150 154 155 154 153 153 152 154 154 152 151 152 157 159 157 157 157 158 161 158 151 154 156 142 116 289 286 299 313 314 307 306 308 324 335 309 286 286 290 292 293 294 297 298 295 291 289
212 211 189 191 203 206 212 217 216 208 199 228 242 237 239 247 258 272 268 208 179 194 204 153 138 125 178 201 166 133 122 122 123 126 133 133 136 141 146 152 154 149 142 142 146 150 154 155 154 157 159 163 167 165 163 165 167 171 172 171 172 174 176 189 220 239 258 268 267 267 272 283 297 305 296 283 279 277 277 283 288 297 306 307 297 293
196 217 196 183 198 209 207 208 208 209 208 224 247 250 244 244 250 266 272 218 169 152 195 201 161 124 238 236 177 127 120 131 135 137 135 126 130 138 144 149 150 145 140 141 146 149 153 157 158 162 162 163 172 175 170 173 182 188 190 186 180 185 199 217 238 248 259 270 280 289 292 294 300 301 299 297 294 287 280 283 288 296 307 310 305 303
192 216 211 183 191 207 203 204 204 214 217 207 240 259 262 254 249 254 266 232 133 142 189 213 178 146 243 241 175 141 134 144 141 135 126 118 124 131 135 143 153 157 154 149 147 148 151 155 159 165 165 166 174 181 179 179 181 181 178 149 123 278 252 235 262 274 280 290 304 317 325 329 336 336 333 331 328 323 315 311 311 312 316 314 310 310
202 208 220 207 188 189 195 208 205 216 214 182 225 255 274 272 255 244 265 73 94 192 209 200 173 162 237 242 180 169 152 146 138 127 122 118 121 126 132 141 151 156 155 151 148 147 147 149 154 162 164 164 169 178 178 158 132 122 110 89 113 223 247 243 262 276 285 303 314 329 351 358 358 354 342 337 338 338 334 330 328 325 321 317 312 312
222 201 217 225 198 182 184 209 206 213 215 185 211 226 259 292 287 275 321 60 93 259 238 192 167 168 213 241 253 262 162 146 141 138 136 129 124 127 133 138 142 144 147 151 152 147 145 147 150 157 160 160 168 179 175 170 153 138 141 149 164 199 239 255 260 273 280 284 286 292 314 318 318 321 317 323 330 332 329 324 321 318 315 315 315 316
237 212 207 217 216 190 180 199 200 209 212 204 214 177 176 271 235 206 291 81 159 236 222 179 171 196 177 196 300 308 133 137 135 137 137 131 126 126 129 133 135 136 138 142 144 141 140 144 147 152 156 159 169 176 172 181 185 168 169 182 182 197 238 258 260 266 269 271 275 274 274 279 283 285 291 308 321 325 325 320 316 316 320 322 322 323
237 244 211 206 218 201 190 183 184 204 199 201 211 160 153 189 188 207 208 164 197 220 204 173 175 224 121 41 330 50 112 116 118 123 125 124 124 122 124 128 130 130 130 132 136 137 134 135 140 145 151 156 164 175 185 199 203 195 194 201 208 219 239 257 267 272 271 277 284 277 275 281 283 283 289 304 315 319 320 319 319 323 328 328 326 326
205 235 211 198 193 192 198 184 168 177 181 204 204 162 167 179 164 186 165 160 207 206 187 168 168 290 37 9 344 69 101 106 110 115 115 116 119 120 121 125 125 125 128 131 134 134 132 131 136 141 148 158 175 196 209 211 209 207 209 211 217 236 253 260 277 287 286 290 294 288 289 289 286 288 296 305 311 314 316 319 324 330 332 331 330 331
200 226 208 187 177 182 201 200 158 160 183 216 187 163 196 199 153 162 176 167 175 180 170 146 112 38 71 36 21 70 93 101 108 113 114 116 119 120 120 122 124 126 128 130 133 133 132 133 137 139 143 152 167 188 198 200 205 208 211 216 223 245 275 287 296 302 302 302 302 302 304 301 298 299 299 304 311 313 316 321 328 333 334 335 336 336
191 229 202 175 186 199 200 207 179 156 174 201 196 193 207 203 165 139 189 168 116 135 197 119 97 101 104 59 48 81 93 98 106 110 114 119 121 120 120 123 126 128 129 130 131 132 132 134 137 138 141 147 148 154 174 190 206 212 211 216 237 307 314 311 313 321 329 327 318 313 318 324 330 330 324 323 325 324 324 327 331 336 338 338 339 339
172 219 200 181 200 195 180 198 237 221 185 170 193 210 201 219 211 133 142 167 120 144 236 120 134 156 157 155 138 115 103 106 111 110 112 115 115 115 118 123 125 126 126 125 124 125 126 126 129 131 133 136 132 130 147 178 211 232 211 136 58 34 3 343 347 355 350 341 330 329 340 351 355 356 355 349 343 339 336 335 338 341 340 341 343 343
175 166 212 200 206 169 153 176 262 268 242 211 190 192 170 202 231 168 144 173 155 162 206 116 148 174 174 169 164 154 144 134 121 115 114 110 111 114 117 119 120 119 119 117 118 120 120 119 117 117 122 129 135 144 157 182 223 53 73 75 59 37 11 2 10 8 349 338 340 351 5 12 13 15 14 8 360 351 345 344 345 343 342 346 349 348
173 124 282 227 195 154 140 166 214 242 245 246 262 234 198 186 195 182 170 166 150 167 183 136 166 228 200 176 174 164 155 146 134 127 120 115 117 119 121 121 119 117 115 117 121 121 123 123 114 114 131 140 144 156 158 111 80 85 83 71 47 28 17 12 12 358 343 349 3 14 25 29 30 31 24 17 9 358 351 349 348 347 348 351 352 352
160 125 284 263 189 161 168 190 197 210 223 232 245 229 225 208 174 190 221 174 142 158 169 136 209 258 350 185 182 155 140 137 130 126 122 121 123 125 128 127 123 122 123 125 125 122 125 131 129 134 144 134 111 96 88 80 83 82 75 66 49 33 27 20 11 4 9 20 26 32 41 40 33 29 22 15 9 0 354 354 351 350 353 353 353 355
153 138 186 263 216 179 182 183 189 199 204 203 207 211 216 199 163 171 261 226 139 146 159 139 181 250 329 335 166 133 123 122 117 118 119 122 126 128 131 131 127 128 130 128 125 124 126 133 139 141 128 115 110 101 85 85 93 87 76 70 53 34 34 29 21 24 32 34 36 42 48 41 26 20 15 10 6 360 355 356 354 354 356 357 357 359
143 129 186 234 258 202 192 188 188 200 212 213 223 221 196 177 156 143 198 224 187 184 169 130 142 241 343 23 107 110 116 123 123 124 124 125 128 128 128 128 127 128 130 127 126 129 134 137 135 128 122 121 118 104 83 80 88 87 77 63 46 45 46 39 31 33 37 33 30 35 43 39 28 20 13 8 5 0 358 355 351 354 1 4 4 3
149 121 163 198 297 236 199 199 191 195 217 228 233 226 190 186 174 148 169 188 175 209 178 114 102 142 45 74 107 111 116 120 123 126 125 124 126 125 125 126 126 126 125 124 129 135 138 138 132 126 125 123 111 96 84 77 76 76 67 54 54 58 53 43 34 33 35 29 20 22 31 36 33 23 13 9 7 7 6 359 350 354 1 4 8 8
177 142 126 137 298 211 190 201 195 196 211 219 232 235 220 206 168 148 180 133 65 236 172 114 123 146 113 106 109 112 115 116 121 126 126 125 124 124 127 129 127 125 124 130 140 142 137 135 134 127 118 106 94 88 85 81 76 72 65 60 62 64 59 50 37 28 27 21 17 23 33 39 37 30 22 18 18 17 13 4 358 359 358 2 16 16
176 142 120 136 168 187 188 202 188 183 209 225 293 259 237 223 196 150 167 205 240 253 107 110 138 132 124 121 114 117 124 124 128 130 128 128 128 129 132 132 128 127 130 137 139 136 131 130 130 123 112 101 92 90 88 83 77 72 69 68 68 68 67 55 28 16 16 19 28 33 35 37 36 34 30 25 25 23 15 9 6 4 360 3 22 23
144 120 148 143 161 186 194 233 143 115 171 234 255 279 258 234 224 170 143 204 208 147 43 132 143 136 140 138 130 135 136 133 136 134 131 131 132 133 134 131 128 127 128 130 130 131 132 128 124 120 113 100 91 89 86 81 77 75 72 70 67 64 58 34 13 22 33 37 42 40 36 36 35 36 36 33 31 27 20 17 16 15 13 13 20 25
78 113 177 155 168 214 231 270 311 77 105 241 243 256 269 252 238 214 171 198 176 106 52 170 146 140 156 157 147 148 144 140 142 138 135 136 135 134 132 128 126 126 126 129 132 134 133 128 122 117 110 101 96 90 81 78 78 75 69 65 59 52 42 22 20 39 47 45 46 44 41 39 39 43 45 42 39 34 28 27 29 30 28 26 27 29
90 99 198 163 199 258 313 343 353 28 28 312 282 261 275 277 248 227 205 188 163 135 161 175 159 151 159 158 150 150 146 140 139 137 137 137 134 132 129 127 127 128 132 138 139 136 131 127 125 119 110 106 103 92 80 80 81 78 75 68 55 49 36 19 26 47 50 47 51 52 48 47 49 51 50 48 46 43 41 40 40 41 42 42 43 39
96 54 301 138 197 284 28 52 19 23 25 12 14 354 340 337 283 245 217 154 121 134 151 156 153 144 147 148 142 140 137 134 134 136 139 138 135 133 131 129 131 135 140 142 136 130 124 118 117 115 111 108 103 93 86 88 89 87 85 73 54 45 30 15 30 54 54 50 58 62 57 55 56 56 54 54 53 52 52 51 49 51 54 55 55 49
86 267 315 86 76 323 21 51 29 33 38 27 14 4 3 3 343 277 182 112 96 107 127 131 123 107 127 130 127 130 132 132 133 137 140 140 139 138 134 133 135 138 141 141 136 131 124 118 116 115 112 106 101 95 90 89 91 90 83 70 52 43 28 18 44 64 59 54 61 66 62 59 59 60 60 60 59 59 58 57 56 58 60 60 59 58
77 131 354 67 66 341 4 28 32 37 32 22 10 2 356 354 0 11 60 94 119 125 123 123 124 130 134 127 124 129 132 133 136 139 140 141 141 140 136 135 138 141 142 144 141 133 125 124 122 117 110 102 98 96 88 87 90 86 77 66 51 40 29 36 64 70 65 61 62 65 63 61 64 64 64 65 64 63 61 58 57 58 59 59 60 61
89 116 96 88 100 320 341 14 51 54 26 347 344 6 345 336 354 7 18 35 113 135 135 144 154 149 142 134 131 136 137 138 143 144 144 145 142 139 137 138 142 145 143 143 138 125 121 124 118 108 106 101 96 92 86 89 92 83 74 65 50 36 35 59 74 73 70 68 66 67 66 65 69 70 69 69 68 67 65 61 58 57 56 57 56 56
89 109 121 120 116 296 318 5 48 77 356 268 277 15 338 357 25 14 18 39 63 105 110 126 143 143 143 140 139 142 143 145 148 148 147 146 142 138 139 143 146 145 141 142 139 126 121 123 115 107 106 100 97 95 91 95 97 86 76 63 44 38 52 71 79 79 76 73 70 71 70 70 73 75 75 73 71 71 70 66 62 59 57 56 53 52
88 100 95 99 102 94 334 32 63 189 236 266 332 358 348 91 68 25 359 41 70 96 104 112 131 139 137 134 133 134 137 141 145 147 147 146 143 141 142 143 144 142 138 140 145 141 128 121 117 114 109 102 102 102 98 100 99 87 75 58 50 61 71 76 81 83 82 79 75 73 72 72 75 78 80 79 76 74 72 69 65 61 56 54 52 50
115 112 83 88 103 101 63 76 137 223 267 331 7 356 351 94 78 26 343 22 61 109 122 123 131 133 127 127 127 127 128 128 127 134 144 146 143 142 141 139 138 136 133 136 147 153 142 125 120 118 109 106 111 110 104 104 102 90 75 63 66 76 78 78 80 82 83 83 80 77 74 72 72 73 75 76 76 76 74 71 68 64 59 55 53 51
109 117 105 109 117 115 115 123 159 313 323 321 326 255 229 128 101 104 317 7 41 99 125 128 130 130 127 125 125 124 123 117 103 107 131 139 141 142 141 141 140 137 133 134 141 148 143 134 128 119 109 113 116 112 108 108 105 92 78 73 78 82 82 81 81 81 83 84 82 80 77 74 72 71 69 68 68 68 68 67 66 64 61 58 56 54
91 102 141 139 143 110 109 115 74 34 273 249 209 194 217 190 131 116 98 339 355 112 135 136 131 132 131 127 127 126 121 115 99 104 124 133 140 142 143 146 149 146 140 135 135 136 138 141 137 121 115 118 114 107 109 112 107 96 84 82 85 85 85 86 85 85 86 85 83 81 78 75 74 73 71 68 67 66 64 63 62 61 60 59 58 57
71 50 73 102 125 124 112 126 159 166 217 244 217 171 199 199 143 123 104 286 272 152 144 139 133 139 141 137 136 134 125 122 141 135 129 133 140 143 142 145 148 147 141 135 132 130 132 140 140 129 124 120 109 103 110 113 106 98 90 88 89 86 86 86 85 85 86 84 82 79 75 73 72 71 71 71 70 69 66 64 62 61 59 57 56 57
43 34 81 100 117 129 114 116 152 199 225 292 345 298 219 242 133 132 168 232 194 161 151 145 142 145 146 144 142 139 133 143 148 142 138 138 140 142 142 141 142 140 136 132 129 125 125 131 136 134 129 118 106 104 111 111 103 96 92 91 88 84 84 85 84 84 84 82 81 77 74 73 71 69 70 70 71 72 70 68 66 63 61 59 56 55
38 13 121 107 115 122 105 105 108 291 214 159 318 274 233 237 110 147 216 195 158 151 151 148 145 144 147 147 140 117 116 136 139 140 142 141 139 138 137 136 134 132 129 126 123 120 118 120 124 128 125 118 111 111 114 109 101 94 91 90 86 84 86 89 89 88 86 82 80 76 74 73 70 69 69 69 70 72 72 71 69 65 64 62 60 58
164 181 109 93 129 135 99 111 139 301 230 161 295 274 204 174 241 205 161 152 149 147 147 146 144 145 145 138 122 117 124 133 136 138 141 142 139 134 133 132 130 128 127 127 125 123 122 121 121 123 125 122 118 119 119 113 106 102 99 93 88 87 88 89 91 91 89 87 83 80 77 74 72 72 72 70 70 70 70 71 70 69 67 66 64 63
167 141 107 109 155 133 93 96 126 188 221 260 297 294 175 171 188 139 124 135 146 146 144 145 147 149 144 130 125 129 132 134 135 136 136 139 138 136 135 134 131 129 129 129 127 127 127 125 122 123 127 127 125 124 124 121 116 112 106 99 96 95 91 90 90 89 88 87 85 83 80 77 75 75 74 73 73 72 71 69 68 68 67 66 65 65
199 140 135 175 247 136 134 159 186 223 250 243 238 72 88 118 138 132 124 130 142 144 145 147 149 151 144 134 132 135 136 135 136 137 137 140 141 139 136 133 130 129 128 127 126 127 128 126 122 121 125 128 128 125 123 122 118 113 107 105 108 106 97 93 93 91 88 85 83 82 81 78 76 75 74 73 73 72 72 70 68 67 65 62 62 62
267 158 137 128 232 137 123 163 214 137 71 86 96 97 100 113 128 131 127 129 138 146 150 148 146 147 145 140 137 138 138 137 138 139 140 142 141 139 136 134 133 133 131 129 127 127 125 121 118 117 118 119 119 116 113 113 112 108 105 106 108 106 100 96 93 90 88 85 82 81 78 76 74 72 72 72 71 70 69 68 68 67 64 62 61 59
125 139 119 99 131 111 61 38 61 84 82 87 94 98 104 113 123 127 125 126 135 147 151 148 146 146 146 143 140 138 139 140 140 140 141 141 140 139 138 136 135 133 132 130 130 129 126 122 119 118 116 115 114 111 109 107 106 106 108 108 106 102 99 97 94 90 86 83 78 74 72 70 68 67 69 70 69 68 65 63 63 64 63 61 60 58
166 153 109 100 156 141 57 353 68 92 94 94 96 100 104 110 118 125 126 126 132 142 147 146 146 147 145 144 142 140 141 143 141 139 140 140 140 140 139 136 134 133 133 132 132 131 127 122 120 119 117 116 116 116 115 112 109 107 108 109 108 106 102 97 91 87 83 80 75 70 68 66 64 63 64 66 66 64 61 58 58 59 59 59 58 58
175 141 103 108 129 105 126 167 107 97 101 103 104 107 109 113 119 125 127 129 134 140 143 143 145 146 144 144 144 143 142 143 142 141 142 143 143 142 140 138 137 135 132 132 132 131 127 125 123 121 118 118 118 118 118 117 118 118 114 110 108 107 103 99 94 89 84 79 76 72 70 68 65 63 61 62 63 62 58 54 53 53 54 55 55 56
109 112 97 107 115 98 115 138 112 97 94 101 109 113 115 119 123 125 129 135 137 139 141 141 143 145 144 144 146 144 143 144 145 145 145 144 144 143 141 141 139 136 133 134 135 133 130 127 125 122 119 118 115 110 106 103 106 114 118 118 119 117 112 108 105 102 96 88 81 77 74 71 68 65 62 61 61 60 58 55 52 51 52 53 55 57
78 111 105 106 121 140 173 158 134 115 99 105 114 118 121 126 128 129 133 138 138 140 143 142 141 142 144 146 149 147 145 146 147 146 144 143 143 142 141 140 137 134 135 137 136 134 131 128 126 124 123 122 120 116 111 105 102 104 107 111 118 124 123 116 108 104 100 93 87 83 79 76 72 68 65 61 59 59 59 58 56 52 50 51 54 57
52 136 172 148 146 173 171 154 130 112 111 117 121 123 129 134 135 135 138 140 141 144 146 144 142 141 142 146 150 150 148 149 150 150 147 146 147 144 140 137 135 134 137 139 138 135 133 130 127 125 125 127 128 127 125 123 121 118 116 113 111 113 116 115 107 102 100 96 92 88 83 79 76 73 69 65 62 60 59 57 58 56 52 49 51 55